EW3084 Weather Reports


Display with metric or nautical units.
time (UTC)temp
F
wind
direction
speed
MPH
gust
MPH
rain 1hr
in
rain 24hr
in
rain mn
in
humidity
%
barometer
mb
20260831230903 53 302 0.0 1.0 0.00 0.05 0.00 100
20260831230215 53 285 0.0 2.0 0.00 0.06 0.00 100
20260831225619 53 281 1.0 3.0 0.00 0.06 0.00 100
20260831224503 53 281 0.0 2.0 0.00 0.06 0.00 100
20260831223603 53 281 0.0 2.0 0.00 0.07 0.00 100
20260831222703 53 281 0.0 1.0 0.00 0.08 0.00 100
20260831221803 52 281 0.0 2.0 0.00 0.09 0.00 100
20260831221116 52 281 0.0 2.0 0.00 0.09 0.00 100
20260831220003 53 0 0.0 0.0 0.00 0.09 0.00 100
20260831215403 53 0 0.0 0.0 0.00 0.09 0.09 100
20260831214503 53 0 0.0 0.0 0.00 0.10 0.09 100
20260831213603 53 0 0.0 0.0 0.00 0.10 0.09 100
20260831212703 53 0 0.0 0.0 0.00 0.11 0.09 100
20260831212016 53 0 0.0 0.0 0.00 0.12 0.09 100
20260831210903 53 0 0.0 0.0 0.00 0.13 0.09 100
20260831210003 53 0 0.0 0.0 0.00 0.13 0.09 100
20260831205403 53 0 0.0 0.0 0.00 0.14 0.09 100
20260831204718 54 0 0.0 0.0 0.00 0.14 0.09 100
20260831203603 54 0 0.0 0.0 0.00 0.15 0.09 100
20260831202703 54 0 0.0 0.0 0.00 0.15 0.09 100
20260831201803 54 0 0.0 0.0 0.00 0.15 0.09 100
20260831200903 54 0 0.0 0.0 0.00 0.15 0.09 100
20260831200218 55 281 0.0 1.0 0.00 0.15 0.09 100
20260831195403 55 281 0.0 2.0 0.00 0.15 0.09 100
20260831194503 55 0 0.0 0.0 0.00 0.15 0.09 100
20260831193603 55 281 0.0 2.0 0.00 0.15 0.09 100
20260831192703 55 281 0.0 2.0 0.00 0.15 0.09 100
20260831191803 55 0 0.0 0.0 0.00 0.15 0.09 98
20260831191119 55 0 0.0 0.0 0.00 0.15 0.09 97
20260831190003 56 281 0.0 1.0 0.00 0.15 0.09 94
20260831185403 56 0 0.0 0.0 0.00 0.15 0.09 93
20260831184717 56 0 0.0 0.0 0.00 0.15 0.09 92
20260831183603 57 0 0.0 0.0 0.00 0.15 0.09 91
20260831182703 57 0 0.0 0.0 0.00 0.15 0.09 90
20260831181803 58 0 0.0 0.0 0.00 0.15 0.09 89
20260831180903 58 0 0.0 0.0 0.00 0.15 0.09 88
20260831180003 59 0 0.0 0.0 0.00 0.15 0.09 86
20260831175403 59 0 0.0 0.0 0.00 0.15 0.09 86
20260831174503 60 0 0.0 0.0 0.00 0.15 0.09 85
20260831173603 60 0 0.0 0.0 0.00 0.15 0.09 83
20260831172919 60 281 0.0 1.0 0.00 0.15 0.09 82
20260831171803 61 282 0.0 2.0 0.00 0.15 0.09 80
20260831170903 61 279 1.0 6.0 0.00 0.15 0.09 79
20260831170003 62 284 1.0 6.0 0.00 0.15 0.09 79
20260831165403 62 271 1.0 4.0 0.00 0.15 0.09 77
20260831164503 62 270 0.0 3.0 0.00 0.15 0.09 77
20260831163815 62 290 0.0 1.0 0.00 0.15 0.09 77
20260831162703 62 284 1.0 4.0 0.00 0.15 0.09 75
20260831161803 63 276 3.0 7.0 0.00 0.15 0.09 74
20260831160903 63 278 1.0 4.0 0.00 0.15 0.09 74
20260831160003 63 276 2.0 7.0 0.00 0.15 0.09 72
20260831155403 64 279 3.0 7.0 0.00 0.15 0.09 72
20260831154503 64 280 3.0 9.0 0.00 0.15 0.09 72
20260831153819 64 271 5.0 13.0 0.00 0.15 0.09 69
20260831152919 65 273 5.0 10.0 0.00 0.15 0.09 67
20260831151803 65 267 5.0 12.0 0.00 0.15 0.09 70
20260831150903 65 272 4.0 12.0 0.00 0.15 0.09 71
20260831150216 64 279 5.0 12.0 0.00 0.15 0.09 71
20260831145403 64 277 5.0 12.0 0.00 0.15 0.09 74
20260831144503 63 276 4.0 9.0 0.00 0.15 0.09 78
20260831143819 63 275 3.0 7.0 0.00 0.15 0.09 81
20260831142703 63 282 3.0 7.0 0.00 0.15 0.09 82
20260831142017 63 266 3.0 7.0 0.00 0.15 0.09 82
20260831141117 62 268 2.0 5.0 0.00 0.15 0.09 83
20260831140003 62 267 3.0 6.0 0.00 0.15 0.09 83
20260831135403 62 272 3.0 7.0 0.00 0.15 0.09 83
20260831134503 62 272 4.0 13.0 0.00 0.15 0.09 82
20260831133603 62 274 5.0 17.0 0.00 0.15 0.09 82
20260831132703 63 281 3.0 9.0 0.00 0.15 0.09 81
20260831131803 63 279 4.0 9.0 0.00 0.15 0.09 81
20260831130903 63 272 4.0 10.0 0.00 0.15 0.09 81
20260831130003 63 279 5.0 12.0 0.00 0.15 0.09 81
20260831125403 63 273 5.0 12.0 0.00 0.15 0.09 82
20260831124503 62 277 3.0 6.0 0.00 0.15 0.09 83
20260831123603 62 270 3.0 10.0 0.00 0.16 0.09 85
20260831122703 62 277 3.0 10.0 0.00 0.17 0.09 85
20260831121803 62 263 2.0 6.0 0.00 0.17 0.09 85
20260831120903 62 257 2.0 10.0 0.00 0.20 0.09 85
20260831120003 62 264 2.0 6.0 0.00 0.21 0.09 83
20260831115403 62 266 3.0 11.0 0.00 0.21 0.09 82
20260831114503 62 284 3.0 11.0 0.00 0.21 0.09 81
20260831113603 62 281 3.0 7.0 0.00 0.21 0.09 85
20260831112703 62 275 5.0 14.0 0.00 0.21 0.09 84
20260831111803 62 274 6.0 13.0 0.00 0.21 0.09 83
20260831110903 62 277 4.0 11.0 0.00 0.21 0.09 85
20260831110219 62 273 4.0 11.0 0.00 0.21 0.09 85
20260831105403 62 259 3.0 9.0 0.00 0.21 0.09 84
20260831104503 63 257 3.0 9.0 0.00 0.21 0.09 84
20260831103603 63 270 3.0 9.0 0.00 0.21 0.09 85
20260831102703 62 274 4.0 11.0 0.00 0.21 0.09 89
20260831101803 61 279 5.0 15.0 0.00 0.21 0.09 87
20260831101119 61 268 6.0 12.0 0.00 0.21 0.09 86
20260831100003 61 264 4.0 13.0 0.00 0.21 0.09 87
20260831095403 61 277 4.0 10.0 0.00 0.21 0.09 89
20260831094503 61 275 5.0 13.0 0.00 0.21 0.09 88
20260831093603 61 269 5.0 14.0 0.00 0.21 0.09 89
20260831092703 61 274 6.0 15.0 0.00 0.21 0.09 89
20260831091803 61 273 5.0 14.0 0.00 0.21 0.09 89
20260831091119 61 266 5.0 11.0 0.00 0.21 0.09 91
20260831090003 61 274 6.0 15.0 0.00 0.21 0.09 92
20260831085403 61 272 6.0 15.0 0.00 0.21 0.09 92
20260831084503 60 274 6.0 11.0 0.00 0.21 0.09 100
20260831083603 60 272 6.0 15.0 0.00 0.21 0.09 100
20260831082703 60 268 6.0 15.0 0.00 0.21 0.09 100
20260831081803 60 274 6.0 13.0 0.00 0.21 0.09 100
20260831080903 59 263 7.0 13.0 0.00 0.21 0.09 100
20260831080003 59 268 5.0 12.0 0.00 0.21 0.09 100
20260831075403 59 280 5.0 12.0 0.00 0.21 0.09 100
20260831074503 59 270 5.0 12.0 0.00 0.21 0.09 100
20260831073603 59 273 5.0 12.0 0.00 0.21 0.09 100
20260831072703 59 262 7.0 16.0 0.00 0.21 0.09 100
20260831071803 59 272 7.0 17.0 0.00 0.21 0.09 100
20260831070903 59 276 4.0 17.0 0.00 0.21 0.09 100
20260831070003 59 279 6.0 13.0 0.01 0.21 0.09 100
20260831065403 59 276 5.0 13.0 0.01 0.21 0.09 100
20260831064503 59 274 5.0 12.0 0.01 0.21 0.09 100
20260831063603 59 269 6.0 16.0 0.01 0.21 0.09 100
20260831062703 59 272 5.0 16.0 0.01 0.21 0.09 100
20260831061803 59 261 0.0 1.0 0.01 0.21 0.09 100
20260831060903 59 0 0.0 0.0 0.01 0.21 0.09 100
20260831060003 59 0 0.0 0.0 0.00 0.20 0.08 100
20260831055617 59 0 0.0 0.0 0.00 0.20 0.08 100
20260831054503 59 0 0.0 0.0 0.00 0.20 0.08 100
20260831053815 59 266 0.0 3.0 0.00 0.20 0.08 100
20260831052919 59 269 1.0 6.0 0.00 0.20 0.08 100
20260831052018 59 276 1.0 5.0 0.00 0.21 0.08 100
20260831050003 59 279 2.0 6.0 0.00 0.24 0.08 100
20260831045619 59 273 3.0 7.0 0.00 0.24 0.08 100
20260831044503 59 266 2.0 5.0 0.00 0.24 0.08 100
20260831043603 59 257 2.0 7.0 0.00 0.24 0.08 100
20260831042703 59 270 1.0 5.0 0.00 0.24 0.08 100
20260831041803 59 273 0.0 2.0 0.00 0.24 0.08 100
20260831041115 59 279 0.0 2.0 0.00 0.24 0.08 100
20260831040003 59 267 0.0 2.0 0.00 0.24 0.08 100
20260831035403 59 267 0.0 2.0 0.00 0.24 0.08 100
20260831034503 59 267 0.0 1.0 0.00 0.24 0.08 100
20260831033817 59 268 0.0 3.0 0.00 0.24 0.08 100
20260831032703 59 264 1.0 4.0 0.00 0.24 0.08 100
20260831031803 59 264 0.0 3.0 0.00 0.24 0.08 100
20260831030903 59 264 1.0 3.0 0.00 0.24 0.08 100
20260831030219 59 265 1.0 5.0 0.00 0.24 0.08 100
20260831025403 59 279 2.0 6.0 0.00 0.24 0.08 100
20260831024503 59 279 2.0 4.0 0.00 0.24 0.08 100
20260831023603 59 271 1.0 7.0 0.00 0.24 0.08 100
20260831022703 59 265 1.0 4.0 0.01 0.24 0.08 100
20260831022019 59 255 1.0 4.0 0.02 0.24 0.08 100
20260831020903 59 282 0.0 2.0 0.02 0.24 0.08 100
20260831020003 59 285 0.0 3.0 0.02 0.24 0.08 100
20260831015403 59 281 0.0 2.0 0.02 0.24 0.08 100
20260831014503 59 276 1.0 3.0 0.02 0.24 0.08 100
20260831013603 59 277 1.0 5.0 0.02 0.24 0.08 100
20260831012703 59 305 1.0 4.0 0.02 0.24 0.07 100
20260831011803 59 290 1.0 4.0 0.02 0.23 0.06 100
20260831010903 59 0 0.0 0.0 0.02 0.24 0.06 100
20260831010003 59 198 0.0 1.0 0.02 0.24 0.06 100
20260831005403 59 0 0.0 0.0 0.02 0.24 0.06 100
20260831004503 59 0 0.0 0.0 0.02 0.24 0.06 100
20260831003603 59 198 0.0 3.0 0.02 0.24 0.06 100
20260831002703 59 198 0.0 3.0 0.02 0.24 0.06 100
20260831001803 59 0 0.0 0.0 0.01 0.23 0.05 100
20260831001118 59 198 0.0 1.0 0.01 0.23 0.05 100
20260831000003 59 198 0.0 2.0 0.01 0.22 0.04 100
20260830235403 59 198 0.0 2.0 0.01 0.22 0.04 100
20260830234503 59 197 0.0 2.0 0.02 0.22 0.04 100
20260830233603 59 195 0.0 2.0 0.02 0.22 0.04 100
20260830232703 59 194 0.0 2.0 0.03 0.22 0.04 100
20260830232018 59 194 0.0 1.0 0.03 0.22 0.04 100